{"data":{"norad_id":68982,"epoch":"2026-09-20T04:02:07.185408Z","epoch_age_seconds":47950,"freshness":"FRESH","line1":"1 68982U 26100C   26263.16813872  .00000742  00000+0  79863-4 0  9996","line2":"2 68982  97.7199 158.6329 0003786 179.7097 180.4125 14.91376273 20854","mean_motion":14.91376273,"eccentricity":0.0003786,"inclination_deg":97.7199,"raan_deg":158.6329,"arg_perigee_deg":179.7097,"mean_anomaly_deg":180.4125,"bstar":7.9863e-5,"rev_number":2085,"period_min":96.555109939046,"perigee_km":591.00371241571,"apogee_km":596.28274440466,"semimajor_km":6971.7802284102,"source":"CELESTRAK","updated_at":"2026-09-20T09:00:24.597950Z"}}